Погода в Верхнем Дженгутае

Россия / Республика Дагестан     42°40′36″N   47°14′05″E
темп.,
°C
ветер,
м/с
пор.,
м/с
влажн.,
%
обл.,
%
осадки,
мм/ч
давл.,
гПа
погр.,
м
26 июня, вс
вс2600:00+18зюз1180100 0.0 100811
03:00+17ю3383100 0.6 100955
06:00+18зюз2275100 0.1 100879
09:00+21ссв2165100 0.1 1007632
12:00+24ссв336184 0.0 10061251
15:00+24с3360100 0.0 10061129
18:00+24сз355853 0.2 1005495
21:00+19зюз3376100 1.4 100831
27 июня, пн
пн2700:00+19зюз3378100 0.7 100732
03:00+18юз33790 0.1 100734
06:00+20з23760 0.0 1009185
09:00+25ссз43560 0.0 1008825
12:00+27ссз65514 0.0 10081265
15:00+27ссз784781 0.0 10081671
18:00+24сз486694 0.0 1009764
21:00+20зсз3578100 0.0 1010122
28 июня, вт
вт2800:00+18зсз3581100 0.0 1010143
03:00+17зсз368725 0.0 1010166
06:00+19сз37810 0.0 1010453
09:00+22ссз68590 0.0 1009821
12:00+25ссз99460 0.0 10101369
15:00+26ссз894431 0.0 10101839
18:00+22с584911 0.0 1012794
21:00+18зюз22550 0.1 101420
29 июня, ср
ср2900:00+17юз33531 0.0 101424
03:00+17юз33613 0.0 101322
06:00+19юз22621 0.0 101471
09:00+23ссв223912 0.1 10141100
12:00+25св33351 0.4 10131650
15:00+25всв53393 0.4 10131662
18:00+21в33725 0.1 1014586
21:00+17юв229589 0.1 101541
30 июня, чт
чт3000:00+16вюв119387 0.0 101550
03:00+16в229483 0.0 1015176
06:00+16вюв239170 0.1 1015281
09:00+19всв337991 0.1 1015696
12:00+20всв336689 0.1 10141042
15:00+20в435880 0.1 10141137
18:00+18в226180 0.1 1015526
21:00+15ююз117463 0.1 101711